Terminal Aerodrome Forecast
Issued by NWS Portland, OR

Home | Current Version | Previous Version | Text Only | Print | Product List | Glossary On
Versions: 1 2 3 4 5 6 7 8 9 10 11 12 13 14 15 16 17 18 19 20 21 22 23 24 25 26 27 28 29 30 31 32 33 34 35 36 37 38
000
FTUS46 KPQR 202320
TAFAST
TAF
KAST 202320Z 2100/2124 12007KT P6SM VCSH BKN040 BKN100
     FM211600 10009KT P6SM -RA OVC040
     FM212100 16012G18KT 5SM -RA BKN020 OVC035=

USA.gov is the U.S. government's official web portal to all federal, state and local government web resources and services.